Weather History for Stanley, ND

Change the Weather History Date:

Wednesday, January 9, 2013

  Actual Average (KMOT) Record (KMOT)
Temperature  
Mean Temperature 18 °F 12 °F  
Max Temperature 30 °F 20 °F 50 °F (2012)
Min Temperature 6 °F 3 °F -35 °F (1909)
Degree Days  
Heating Degree Days 47 53  
Month to date heating degree days 477  
Since 1 July heating degree days 4072  
Moisture  
Dew Point 18 °F    
Average Humidity 86    
Maximum Humidity 93    
Minimum Humidity 69    
Precipitation  
Precipitation 0.00 in 0.02 in 0.18 in (1972)
Month to date precipitation 0.16  
Year to date precipitation 0.16  
Sea Level Pressure  
Sea Level Pressure 29.90 in    
Wind  
Wind Speed 9 mph (South)    
Max Wind Speed 16 mph    
Max Gust Speed 25 mph    
Visibility 10 miles    
Events      
T = Trace of Precipitation, MM = Missing Value Source: NWS Daily Summary

Daily Weather History Graph

Daily Weather History Graph

Search for Another Location

Airport:

Trip Planner

Search our weather history database for the weather conditions in past years. The results will help you decide how hot, cold, wet, or windy it might be!

Date:

Astronomy

Jan. 09, 2013 Rise Set
Actual Time 8:38 AM CST 5:15 PM CST
Civil Twilight 8:02 AM CST 5:51 PM CST
Nautical Twilight 7:23 AM CST 6:30 PM CST
Astronomical Twilight 6:46 AM CST 7:08 PM CST
Moon 6:20 AM CST (1/9) 3:18 PM CST (1/9)
Length of Visible Light 9h 48m
Length of Day
8h 36m
Waning Crescent, 6% of the Moon is Illuminated
Jan 9
Waning Crescent
Jan 11
New
Jan 18
First Quarter
Jan 26
Full
Feb 3
Last Quarter

Hourly Weather History & Observations

Time (CST) Temp. Windchill Dew Point Humidity Pressure Visibility Wind Dir Wind Speed Gust Speed Precip Events Conditions
12:15 AM 19.4 °F 7.2 °F 15.8 °F 86% 29.89 in 10.0 mi WNW 11.5 mph - N/A   Overcast
12:35 AM 17.6 °F 6.4 °F 15.8 °F 93% 29.90 in 10.0 mi WNW 9.2 mph - N/A   Overcast
12:55 AM 19.4 °F 7.2 °F 17.6 °F 93% 29.90 in 10.0 mi WNW 11.5 mph - N/A   Overcast
1:15 AM 19.4 °F 5.5 °F 17.6 °F 93% 29.92 in 10.0 mi West 15.0 mph - N/A   Overcast
1:35 AM 21.2 °F 8.3 °F 17.6 °F 86% 29.93 in 10.0 mi West 13.8 mph 23.0 mph N/A   Overcast
1:55 AM 21.2 °F 8.3 °F 17.6 °F 86% 29.94 in 10.0 mi WNW 13.8 mph 20.7 mph N/A   Overcast
2:15 AM 21.2 °F 7.3 °F 17.6 °F 86% 29.94 in 10.0 mi NW 16.1 mph 25.3 mph N/A   Overcast
2:35 AM 21.2 °F 10.1 °F 17.6 °F 86% 29.96 in 10.0 mi WNW 10.4 mph 20.7 mph N/A   Overcast
2:55 AM 21.2 °F 9.5 °F 17.6 °F 86% 29.97 in 10.0 mi WNW 11.5 mph 18.4 mph N/A   Overcast
3:15 AM 19.4 °F 7.9 °F 17.6 °F 93% 29.97 in 10.0 mi WNW 10.4 mph - N/A   Overcast
3:35 AM 19.4 °F 7.2 °F 17.6 °F 93% 29.98 in 10.0 mi WNW 11.5 mph - N/A   Overcast
3:55 AM 19.4 °F 8.6 °F 15.8 °F 86% 29.99 in 10.0 mi West 9.2 mph - N/A   Overcast
4:15 AM 17.6 °F 10.7 °F 15.8 °F 93% 29.99 in 10.0 mi West 4.6 mph - N/A   Overcast
4:35 AM 15.8 °F - 14.0 °F 93% 29.99 in 10.0 mi Calm Calm - N/A   Mostly Cloudy
4:55 AM 15.8 °F 6.1 °F 12.2 °F 86% 29.99 in 10.0 mi West 6.9 mph - N/A   Clear
5:15 AM 14.0 °F 5.1 °F 10.4 °F 86% 29.99 in 10.0 mi West 5.8 mph - N/A   Clear
5:35 AM 12.2 °F 2.9 °F 10.4 °F 92% 29.98 in 10.0 mi WSW 5.8 mph - N/A   Clear
5:55 AM 8.6 °F -3.7 °F 6.8 °F 92% 29.98 in 10.0 mi SW 8.1 mph - N/A   Clear
6:15 AM 8.6 °F 0.1 °F 6.8 °F 92% 29.98 in 10.0 mi SW 4.6 mph - N/A   Clear
6:35 AM 6.8 °F -4.8 °F 5.0 °F 92% 29.99 in 10.0 mi WSW 6.9 mph - N/A   Clear
7:15 AM 8.6 °F 2.0 °F 6.8 °F 92% 30.00 in 10.0 mi WNW 3.5 mph - N/A   Clear
7:35 AM 8.6 °F - 6.8 °F 92% 30.00 in 10.0 mi Calm Calm - N/A   Clear
7:55 AM 8.6 °F - 6.8 °F 92% 30.00 in 10.0 mi Calm Calm - N/A   Mostly Cloudy
8:15 AM 10.4 °F 4.0 °F 8.6 °F 92% 30.00 in 10.0 mi South 3.5 mph - N/A   Overcast
8:35 AM 10.4 °F - 6.8 °F 85% 30.00 in 10.0 mi Calm Calm - N/A   Overcast
8:55 AM 12.2 °F - 10.4 °F 92% 29.99 in 10.0 mi Calm Calm - N/A   Overcast
9:15 AM 15.8 °F 10.2 °F 14.0 °F 93% 29.99 in 10.0 mi SSE 3.5 mph - N/A   Overcast
9:35 AM 15.8 °F 8.6 °F 14.0 °F 93% 29.99 in 10.0 mi East 4.6 mph - N/A   Mostly Cloudy
9:55 AM 15.8 °F 10.2 °F 14.0 °F 93% 29.98 in 10.0 mi SE 3.5 mph - N/A   Partly Cloudy
10:15 AM 17.6 °F 9.3 °F 14.0 °F 86% 29.98 in 10.0 mi SSE 5.8 mph - N/A   Clear
10:35 AM 17.6 °F 8.2 °F 15.8 °F 93% 29.97 in 10.0 mi SSE 6.9 mph - N/A   Clear
10:55 AM 19.4 °F 10.4 °F 15.8 °F 86% 29.98 in 10.0 mi South 6.9 mph - N/A   Clear
11:15 AM 21.2 °F 11.7 °F 15.8 °F 80% 29.97 in 10.0 mi SSE 8.1 mph - N/A   Clear
11:35 AM 23.0 °F 12.4 °F 17.6 °F 80% 29.96 in 10.0 mi SE 10.4 mph - N/A   Clear
11:55 AM 23.0 °F 12.4 °F 17.6 °F 80% 29.95 in 10.0 mi SE 10.4 mph - N/A   Clear
12:15 PM 24.8 °F 14.6 °F 17.6 °F 74% 29.94 in 10.0 mi SSE 10.4 mph - N/A   Clear
12:35 PM 24.8 °F 15.3 °F 19.4 °F 80% 29.93 in 10.0 mi South 9.2 mph - N/A   Clear
12:55 PM 26.6 °F 18.2 °F 17.6 °F 69% 29.93 in 10.0 mi South 8.1 mph - N/A   Clear
1:15 PM 24.8 °F 12.9 °F 17.6 °F 74% 29.91 in 10.0 mi South 13.8 mph - N/A   Clear
1:35 PM 24.8 °F 13.4 °F 17.6 °F 74% 29.90 in 10.0 mi South 12.7 mph - N/A   Clear
1:55 PM 24.8 °F 12.4 °F 17.6 °F 74% 29.89 in 10.0 mi South 15.0 mph - N/A   Clear
2:15 PM 24.8 °F 13.4 °F 19.4 °F 80% 29.88 in 10.0 mi SSE 12.7 mph - N/A   Clear
2:35 PM 26.6 °F 14.3 °F 19.4 °F 74% 29.88 in 10.0 mi South 16.1 mph 19.6 mph N/A   Clear
2:55 PM 26.6 °F 15.2 °F 19.4 °F 74% 29.88 in 10.0 mi South 13.8 mph - N/A   Clear
3:15 PM 26.6 °F 14.7 °F 19.4 °F 74% 29.88 in 10.0 mi South 15.0 mph - N/A   Clear
3:35 PM 26.6 °F 16.2 °F 21.2 °F 80% 29.88 in 10.0 mi South 11.5 mph - N/A   Clear
3:55 PM 26.6 °F 16.2 °F 21.2 °F 80% 29.87 in 10.0 mi South 11.5 mph - N/A   Clear
4:15 PM 28.4 °F 20.4 °F 23.0 °F 80% 29.87 in 10.0 mi South 8.1 mph - N/A   Clear
4:35 PM 28.4 °F 23.3 °F 23.0 °F 80% 29.87 in 10.0 mi SSE 4.6 mph - N/A   Clear
4:55 PM 28.4 °F 22.2 °F 23.0 °F 80% 29.86 in 10.0 mi SSE 5.8 mph - N/A   Clear
5:15 PM 28.4 °F 24.6 °F 24.8 °F 86% 29.86 in 10.0 mi SSE 3.5 mph - N/A   Clear
5:35 PM 28.4 °F 21.2 °F 24.8 °F 86% 29.85 in 10.0 mi SE 6.9 mph - N/A   Scattered Clouds
6:15 PM 28.4 °F 19.7 °F 24.8 °F 86% 29.83 in 10.0 mi South 9.2 mph - N/A   Overcast
6:35 PM 30.2 °F 22.6 °F 24.8 °F 80% 29.83 in 10.0 mi South 8.1 mph - N/A   Mostly Cloudy
6:55 PM 30.2 °F 21.9 °F 24.8 °F 80% 29.83 in 10.0 mi SSW 9.2 mph - N/A   Clear
7:15 PM 28.4 °F 21.2 °F 24.8 °F 86% 29.82 in 10.0 mi South 6.9 mph - N/A   Clear
7:55 PM 28.4 °F 21.2 °F 24.8 °F 86% 29.82 in 10.0 mi South 6.9 mph - N/A   Clear
8:15 PM 28.4 °F 23.3 °F 24.8 °F 86% 29.81 in 10.0 mi South 4.6 mph - N/A   Clear
8:35 PM 28.4 °F 23.3 °F 24.8 °F 86% 29.81 in 10.0 mi SSW 4.6 mph - N/A   Partly Cloudy
8:55 PM 26.6 °F - 24.8 °F 93% 29.80 in 10.0 mi Calm Calm - N/A   Partly Cloudy
9:15 PM 26.6 °F - 23.0 °F 86% 29.79 in 10.0 mi Calm Calm - N/A   Partly Cloudy
9:35 PM 28.4 °F 21.2 °F 24.8 °F 86% 29.79 in 10.0 mi SE 6.9 mph - N/A   Clear
9:55 PM 30.2 °F 23.4 °F 26.6 °F 86% 29.78 in 10.0 mi SSE 6.9 mph - N/A   Clear
10:15 PM 30.2 °F 22.6 °F 26.6 °F 86% 29.78 in 10.0 mi SE 8.1 mph - N/A   Clear
10:35 PM 30.2 °F 24.3 °F 26.6 °F 86% 29.76 in 10.0 mi ESE 5.8 mph - N/A   Clear
10:55 PM 28.4 °F 24.6 °F 26.6 °F 93% 29.75 in 10.0 mi East 3.5 mph - N/A   Clear
11:15 PM 28.4 °F 24.6 °F 26.6 °F 93% 29.74 in 10.0 mi East 3.5 mph - N/A   Clear
11:35 PM 26.6 °F 19.1 °F 24.8 °F 93% 29.73 in 10.0 mi ESE 6.9 mph - N/A   Clear
11:55 PM 26.6 °F 17.5 °F 24.8 °F 93% 29.72 in 10.0 mi ESE 9.2 mph - N/A   Clear